#datint,netname,site,siteID,timestamp,AirT,Td,RH_Avg,Solar_W,WindS_Max,WindS_Avg,WindD_Avg,Rain,rain_hour,rain_day,SoilT4,SoilT8,SoilVWC
15min,AgWx,beryljct,423,05AUG2017:00:00:00,61.7,55.7,81,0,16.3,9.6,175,0.01,0.06,0.06,73.8,69.1,.
15min,AgWx,beryljct,423,05AUG2017:00:15:00,61.2,55.3,80,0,11.6,7.4,178,0.00,0.06,0.06,73.4,69.1,.
15min,AgWx,beryljct,423,05AUG2017:00:30:00,61.7,55.4,81,0,14.5,9.1,178,0.02,0.05,0.08,73.0,69.1,.
15min,AgWx,beryljct,423,05AUG2017:00:45:00,61.7,55.6,81,0,11.9,7.7,198,0.01,0.04,0.09,72.7,69.1,.
15min,AgWx,beryljct,423,05AUG2017:01:00:00,62.1,56.4,81,0,12.5,8.7,182,0.03,0.06,0.12,72.3,69.1,.
15min,AgWx,beryljct,423,05AUG2017:01:15:00,62.0,55.8,80,0,11.4,8.3,169,0.03,0.09,0.15,72.1,69.1,.
15min,AgWx,beryljct,423,05AUG2017:01:30:00,62.1,56.1,81,0,19.0,13.0,153,0.01,0.08,0.16,71.8,69.1,.
15min,AgWx,beryljct,423,05AUG2017:01:45:00,62.2,55.8,81,0,23.0,15.6,151,0.00,0.07,0.16,71.4,69.1,.
15min,AgWx,beryljct,423,05AUG2017:02:00:00,62.7,57.0,81,0,21.2,14.9,150,0.01,0.05,0.17,71.1,69.1,.
15min,AgWx,beryljct,423,05AUG2017:02:15:00,62.0,56.9,81,0,15.2,10.3,169,0.00,0.02,0.17,70.8,69.1,.
15min,AgWx,beryljct,423,05AUG2017:02:30:00,62.3,56.7,81,0,20.5,14.0,167,0.00,0.01,0.17,70.6,69.1,.
15min,AgWx,beryljct,423,05AUG2017:02:45:00,62.8,54.6,76,0,22.6,17.2,149,0.00,0.01,0.17,70.2,69.1,.
15min,AgWx,beryljct,423,05AUG2017:03:00:00,62.1,55.3,77,0,20.2,12.1,167,0.00,0.00,0.17,69.9,69.1,.
15min,AgWx,beryljct,423,05AUG2017:03:15:00,62.8,56.3,80,0,13.9,10.5,182,0.00,0.00,0.17,69.6,69.1,.
15min,AgWx,beryljct,423,05AUG2017:03:30:00,62.4,56.9,82,0,12.4,9.7,197,0.00,0.00,0.17,69.3,69.1,.
15min,AgWx,beryljct,423,05AUG2017:03:45:00,61.4,56.6,82,0,8.7,5.2,254,0.00,0.00,0.17,69.1,69.1,.
15min,AgWx,beryljct,423,05AUG2017:04:00:00,62.2,56.2,82,0,9.1,4.2,256,0.00,0.00,0.17,68.8,69.1,.
15min,AgWx,beryljct,423,05AUG2017:04:15:00,61.8,56.1,82,0,10.7,6.0,184,0.00,0.00,0.17,68.6,69.1,.
15min,AgWx,beryljct,423,05AUG2017:04:30:00,63.1,57.1,81,0,11.2,7.9,186,0.00,0.00,0.17,68.3,69.1,.
15min,AgWx,beryljct,423,05AUG2017:04:45:00,64.9,57.5,80,0,13.1,9.1,227,0.00,0.00,0.17,68.1,69.1,.
15min,AgWx,beryljct,423,05AUG2017:05:00:00,63.7,56.7,76,0,10.3,7.2,231,0.00,0.00,0.17,67.9,69.1,.
15min,AgWx,beryljct,423,05AUG2017:05:15:00,63.9,56.5,77,0,12.7,7.8,230,0.00,0.00,0.17,67.7,69.1,.
15min,AgWx,beryljct,423,05AUG2017:05:30:00,64.1,55.9,75,0,10.8,8.2,222,0.00,0.00,0.17,67.6,69.1,.
15min,AgWx,beryljct,423,05AUG2017:05:45:00,64.0,55.3,72,0,13.9,9.2,216,0.00,0.00,0.17,67.3,69.1,.
15min,AgWx,beryljct,423,05AUG2017:06:00:00,64.3,54.7,71,0,13.9,9.4,200,0.00,0.00,0.17,67.2,69.1,.
15min,AgWx,beryljct,423,05AUG2017:06:15:00,63.0,54.9,73,0,11.2,7.0,200,0.00,0.00,0.17,66.9,69.1,.
15min,AgWx,beryljct,423,05AUG2017:06:30:00,62.8,55.2,76,0,8.1,4.7,218,0.00,0.00,0.17,66.8,69.1,.
15min,AgWx,beryljct,423,05AUG2017:06:45:00,58.8,54.8,79,2,5.9,3.2,139,0.00,0.00,0.17,66.6,69.1,.
15min,AgWx,beryljct,423,05AUG2017:07:00:00,60.4,54.0,82,9,3.2,0.9,126,0.00,0.00,0.17,66.5,69.1,.
15min,AgWx,beryljct,423,05AUG2017:07:15:00,59.9,54.3,82,17,3.6,1.7,23,0.00,0.00,0.17,66.2,69.1,.
15min,AgWx,beryljct,423,05AUG2017:07:30:00,61.0,55.2,82,58,5.1,2.4,14,0.00,0.00,0.17,66.0,69.1,.
15min,AgWx,beryljct,423,05AUG2017:07:45:00,63.6,55.8,81,119,3.5,0.9,217,0.00,0.00,0.17,66.0,69.1,.
15min,AgWx,beryljct,423,05AUG2017:08:00:00,65.9,57.0,77,160,2.7,1.1,280,0.00,0.00,0.17,65.8,69.1,.
15min,AgWx,beryljct,423,05AUG2017:08:15:00,65.3,58.4,78,205,7.3,4.6,310,0.00,0.00,0.17,65.6,69.1,.
15min,AgWx,beryljct,423,05AUG2017:08:30:00,66.2,58.1,77,252,9.7,6.3,293,0.00,0.00,0.17,65.6,69.1,.
15min,AgWx,beryljct,423,05AUG2017:08:45:00,67.0,58.2,74,299,8.8,5.9,273,0.00,0.00,0.17,65.7,69.1,.
15min,AgWx,beryljct,423,05AUG2017:09:00:00,68.0,59.2,75,346,7.7,4.2,245,0.00,0.00,0.17,65.9,69.1,.
15min,AgWx,beryljct,423,05AUG2017:09:15:00,68.8,58.8,72,394,5.5,3.5,149,0.00,0.00,0.17,66.1,69.1,.
15min,AgWx,beryljct,423,05AUG2017:09:30:00,68.9,59.2,71,440,6.9,4.6,146,0.00,0.00,0.17,66.6,69.1,.
15min,AgWx,beryljct,423,05AUG2017:09:45:00,69.8,60.2,72,487,7.6,4.9,139,0.00,0.00,0.17,67.0,69.1,.
15min,AgWx,beryljct,423,05AUG2017:10:00:00,70.8,59.6,69,531,9.8,5.8,156,0.00,0.00,0.17,67.6,69.1,.
15min,AgWx,beryljct,423,05AUG2017:10:15:00,71.6,58.2,64,573,13.6,8.8,182,0.00,0.00,0.17,68.2,69.1,.
15min,AgWx,beryljct,423,05AUG2017:10:30:00,72.2,57.8,61,616,13.3,9.8,186,0.00,0.00,0.17,68.8,69.1,.
15min,AgWx,beryljct,423,05AUG2017:10:45:00,72.6,57.8,60,654,13.4,9.8,190,0.00,0.00,0.17,69.3,69.1,.
15min,AgWx,beryljct,423,05AUG2017:11:00:00,72.9,57.8,59,691,15.5,9.8,184,0.00,0.00,0.17,70.0,69.1,.
15min,AgWx,beryljct,423,05AUG2017:11:15:00,73.8,58.5,60,727,14.7,10.5,174,0.00,0.00,0.17,70.4,69.1,.
15min,AgWx,beryljct,423,05AUG2017:11:30:00,74.4,58.9,59,762,13.1,9.5,175,0.00,0.00,0.17,70.8,69.1,.
15min,AgWx,beryljct,423,05AUG2017:11:45:00,74.7,58.6,58,792,14.1,9.2,174,0.00,0.00,0.17,71.3,69.1,.
15min,AgWx,beryljct,423,05AUG2017:12:00:00,75.5,59.2,58,820,13.1,8.5,181,0.00,0.00,0.17,71.8,69.1,.
15min,AgWx,beryljct,423,05AUG2017:12:15:00,75.6,58.9,56,843,13.1,7.9,189,0.00,0.00,0.17,72.4,69.1,.
15min,AgWx,beryljct,423,05AUG2017:12:30:00,76.1,59.8,58,862,15.2,10.6,166,0.00,0.00,0.17,73.0,69.1,.
15min,AgWx,beryljct,423,05AUG2017:12:45:00,76.3,59.2,56,882,15.5,10.5,172,0.00,0.00,0.17,73.4,69.1,.
15min,AgWx,beryljct,423,05AUG2017:13:00:00,76.1,59.6,56,896,17.5,12.3,170,0.00,0.00,0.17,74.1,69.1,.
15min,AgWx,beryljct,423,05AUG2017:13:15:00,76.6,59.6,56,909,17.7,12.5,166,0.00,0.00,0.17,74.6,69.1,.
15min,AgWx,beryljct,423,05AUG2017:13:30:00,76.4,59.3,55,917,19.3,13.8,166,0.00,0.00,0.17,75.3,69.1,.
15min,AgWx,beryljct,423,05AUG2017:13:45:00,77.0,59.9,56,919,22.1,13.3,160,0.00,0.00,0.17,75.8,69.1,.
15min,AgWx,beryljct,423,05AUG2017:14:00:00,77.0,59.4,54,916,18.3,14.1,168,0.00,0.00,0.17,76.5,69.1,.
15min,AgWx,beryljct,423,05AUG2017:14:15:00,77.2,60.1,56,883,18.5,13.9,162,0.00,0.00,0.17,77.1,69.1,.
15min,AgWx,beryljct,423,05AUG2017:14:30:00,77.8,60.1,54,903,17.4,13.7,166,0.00,0.00,0.17,77.7,69.1,.
15min,AgWx,beryljct,423,05AUG2017:14:45:00,78.5,60.7,56,866,19.0,13.5,162,0.00,0.00,0.17,78.2,69.1,.
15min,AgWx,beryljct,423,05AUG2017:15:00:00,79.6,60.4,53,878,20.3,13.8,165,0.00,0.00,0.17,78.9,69.1,.
15min,AgWx,beryljct,423,05AUG2017:15:15:00,80.4,61.0,53,864,18.0,12.5,169,0.00,0.00,0.17,79.3,69.1,.
15min,AgWx,beryljct,423,05AUG2017:15:30:00,79.2,60.8,53,829,19.4,13.5,169,0.00,0.00,0.17,80.0,69.1,.
15min,AgWx,beryljct,423,05AUG2017:15:45:00,80.6,60.0,51,634,20.2,13.6,180,0.00,0.00,0.17,80.5,69.1,.
15min,AgWx,beryljct,423,05AUG2017:16:00:00,81.1,60.4,51,804,19.9,13.1,186,0.00,0.00,0.17,80.8,69.1,.
15min,AgWx,beryljct,423,05AUG2017:16:15:00,80.7,60.1,50,747,20.2,14.2,182,0.00,0.00,0.17,81.2,69.1,.
15min,AgWx,beryljct,423,05AUG2017:16:30:00,81.4,59.9,49,718,18.9,14.1,186,0.00,0.00,0.17,81.6,69.1,.
15min,AgWx,beryljct,423,05AUG2017:16:45:00,81.6,59.9,49,685,16.1,9.6,207,0.00,0.00,0.17,81.8,69.1,.
15min,AgWx,beryljct,423,05AUG2017:17:00:00,81.1,59.6,48,643,21.1,11.2,194,0.00,0.00,0.17,82.1,69.1,.
15min,AgWx,beryljct,423,05AUG2017:17:15:00,80.5,58.6,47,602,16.9,11.5,200,0.00,0.00,0.17,82.4,69.1,.
15min,AgWx,beryljct,423,05AUG2017:17:30:00,80.8,58.7,47,559,15.7,9.7,201,0.00,0.00,0.17,82.5,69.1,.
15min,AgWx,beryljct,423,05AUG2017:17:45:00,80.8,58.4,47,514,14.8,10.0,207,0.00,0.00,0.17,82.6,69.1,.
15min,AgWx,beryljct,423,05AUG2017:18:00:00,80.3,58.3,47,470,15.5,10.3,210,0.00,0.00,0.17,82.9,69.1,.
15min,AgWx,beryljct,423,05AUG2017:18:15:00,79.7,58.2,47,425,14.4,9.0,204,0.00,0.00,0.17,82.8,69.1,.
15min,AgWx,beryljct,423,05AUG2017:18:30:00,79.8,58.3,48,385,14.6,8.4,213,0.00,0.00,0.17,83.0,69.1,.
15min,AgWx,beryljct,423,05AUG2017:18:45:00,78.0,58.1,49,187,13.8,7.0,248,0.00,0.00,0.17,82.8,69.1,.
15min,AgWx,beryljct,423,05AUG2017:19:00:00,70.1,50.2,42,15,28.4,13.8,359,0.00,0.00,0.17,82.8,69.1,.
15min,AgWx,beryljct,423,05AUG2017:19:15:00,60.8,54.0,67,5,32.4,18.0,338,0.07,0.07,0.24,82.4,69.1,.
15min,AgWx,beryljct,423,05AUG2017:19:30:00,60.7,55.6,80,4,23.9,14.5,332,0.10,0.17,0.34,81.9,69.1,.
15min,AgWx,beryljct,423,05AUG2017:19:45:00,62.0,55.4,81,3,14.1,10.7,296,0.12,0.29,0.46,81.0,69.1,.
15min,AgWx,beryljct,423,05AUG2017:20:00:00,62.6,56.6,82,2,14.0,9.4,308,0.01,0.30,0.47,80.1,69.1,.
15min,AgWx,beryljct,423,05AUG2017:20:15:00,63.7,56.4,79,2,14.9,11.4,289,0.00,0.23,0.47,79.0,69.1,.
15min,AgWx,beryljct,423,05AUG2017:20:30:00,64.2,56.2,75,1,13.2,8.5,302,0.00,0.13,0.47,78.2,69.1,.
15min,AgWx,beryljct,423,05AUG2017:20:45:00,65.5,56.4,74,0,6.7,3.0,21,0.00,0.01,0.47,77.5,69.1,.
15min,AgWx,beryljct,423,05AUG2017:21:00:00,63.2,56.8,75,0,8.4,3.8,86,0.00,0.00,0.47,76.7,69.1,.
15min,AgWx,beryljct,423,05AUG2017:21:15:00,62.7,57.3,82,0,8.5,5.1,102,0.01,0.01,0.48,76.1,69.1,.
15min,AgWx,beryljct,423,05AUG2017:21:30:00,62.4,56.5,81,0,6.1,3.9,197,0.00,0.01,0.48,75.4,69.1,.
15min,AgWx,beryljct,423,05AUG2017:21:45:00,62.7,56.6,81,0,5.9,2.4,191,0.01,0.02,0.49,75.1,69.1,.
15min,AgWx,beryljct,423,05AUG2017:22:00:00,63.5,57.7,81,0,7.9,5.9,181,0.00,0.02,0.49,74.5,69.1,.
15min,AgWx,beryljct,423,05AUG2017:22:15:00,63.9,58.0,81,0,11.2,8.1,198,0.00,0.01,0.49,74.1,69.1,.
15min,AgWx,beryljct,423,05AUG2017:22:30:00,64.9,57.3,78,0,12.8,8.7,207,0.00,0.01,0.49,73.7,69.1,.
15min,AgWx,beryljct,423,05AUG2017:22:45:00,64.7,57.1,77,0,11.7,8.3,196,0.00,0.00,0.49,73.4,69.1,.
15min,AgWx,beryljct,423,05AUG2017:23:00:00,64.1,57.2,76,0,13.2,9.9,192,0.00,0.00,0.49,73.0,69.1,.
15min,AgWx,beryljct,423,05AUG2017:23:15:00,64.4,58.0,81,0,11.8,7.3,167,0.00,0.00,0.49,72.7,69.1,.
15min,AgWx,beryljct,423,05AUG2017:23:30:00,64.0,56.7,75,0,13.0,8.9,173,0.00,0.00,0.46,72.2,69.1,.
15min,AgWx,beryljct,423,05AUG2017:23:45:00,64.3,56.9,77,0,8.7,6.0,169,0.00,0.00,0.44,71.9,69.1,.
15min,AgWx,beryljct,423,06AUG2017:00:00:00,64.0,57.1,79,0,9.5,4.5,273,0.00,0.00,0.43,71.7,69.1,.
15min,AgWx,beryljct,423,06AUG2017:00:15:00,64.0,56.4,76,0,8.8,5.6,290,0.00,0.00,0.43,71.4,69.1,.
15min,AgWx,beryljct,423,06AUG2017:00:30:00,63.8,57.6,81,0,8.2,5.8,341,0.00,0.00,0.41,71.0,69.1,.
15min,AgWx,beryljct,423,06AUG2017:00:45:00,62.8,57.3,81,0,9.1,5.9,356,0.00,0.00,0.40,70.8,69.1,.
15min,AgWx,birchsprings,428,05AUG2017:00:00:00,56.0,41.5,58,0,2.8,1.3,265,0.00,0.00,0.04,68.3,0.0,.
15min,AgWx,birchsprings,428,05AUG2017:00:15:00,55.9,41.4,57,0,3.5,2.0,247,0.00,0.00,0.04,68.3,0.0,.
15min,AgWx,birchsprings,428,05AUG2017:00:30:00,53.9,41.8,61,0,2.4,1.2,237,0.00,0.00,0.04,68.1,0.0,.
15min,AgWx,birchsprings,428,05AUG2017:00:45:00,52.5,43.1,69,0,3.6,1.8,236,0.00,0.00,0.04,67.7,0.0,.
15min,AgWx,birchsprings,428,05AUG2017:01:00:00,51.9,43.0,70,0,3.6,2.4,240,0.00,0.00,0.04,67.7,0.0,.
15min,AgWx,birchsprings,428,05AUG2017:01:15:00,51.7,43.1,72,0,3.2,2.3,231,0.00,0.00,0.04,67.4,0.0,.
15min,AgWx,birchsprings,428,05AUG2017:01:30:00,51.5,44.3,77,0,2.8,2.0,232,0.00,0.00,0.04,67.3,0.0,.
15min,AgWx,birchsprings,428,05AUG2017:01:45:00,51.0,44.5,77,0,2.1,1.0,233,0.00,0.00,0.04,67.0,0.0,.
15min,AgWx,birchsprings,428,05AUG2017:02:00:00,51.1,44.5,78,0,2.9,2.0,228,0.00,0.00,0.04,66.9,0.0,.
15min,AgWx,birchsprings,428,05AUG2017:02:15:00,51.3,44.6,78,0,3.1,2.6,231,0.00,0.00,0.04,66.7,0.0,.
15min,AgWx,birchsprings,428,05AUG2017:02:30:00,51.1,43.1,74,0,5.8,4.0,222,0.00,0.00,0.04,66.5,0.0,.
15min,AgWx,birchsprings,428,05AUG2017:02:45:00,50.4,43.1,75,0,5.5,3.3,225,0.00,0.00,0.04,66.4,0.0,.
15min,AgWx,birchsprings,428,05AUG2017:03:00:00,49.3,43.7,79,0,3.0,2.1,240,0.00,0.00,0.04,66.1,0.0,.
15min,AgWx,birchsprings,428,05AUG2017:03:15:00,50.3,44.1,81,0,3.5,2.3,231,0.00,0.00,0.04,65.9,0.0,.
15min,AgWx,birchsprings,428,05AUG2017:03:30:00,49.0,44.2,81,0,3.9,2.3,238,0.00,0.00,0.04,65.8,0.0,.
15min,AgWx,birchsprings,428,05AUG2017:03:45:00,49.4,44.7,84,0,3.7,2.7,229,0.00,0.00,0.04,65.6,0.0,.
15min,AgWx,birchsprings,428,05AUG2017:04:00:00,49.4,44.8,85,0,3.2,2.3,236,0.00,0.00,0.04,65.6,0.0,.
15min,AgWx,birchsprings,428,05AUG2017:04:15:00,49.9,44.4,82,0,4.8,2.8,227,0.00,0.00,0.04,65.3,0.0,.
15min,AgWx,birchsprings,428,05AUG2017:04:30:00,49.9,45.1,83,0,5.1,3.2,229,0.00,0.00,0.04,65.2,0.0,.
15min,AgWx,birchsprings,428,05AUG2017:04:45:00,50.1,44.9,80,0,5.0,3.6,231,0.00,0.00,0.04,65.1,0.0,.
15min,AgWx,birchsprings,428,05AUG2017:05:00:00,52.4,45.5,80,0,6.1,3.1,236,0.00,0.00,0.04,64.8,0.0,.
15min,AgWx,birchsprings,428,05AUG2017:05:15:00,51.4,45.5,79,0,5.8,3.6,222,0.00,0.00,0.04,64.8,0.0,.
15min,AgWx,birchsprings,428,05AUG2017:05:30:00,50.5,46.3,84,0,4.4,2.5,226,0.00,0.00,0.04,64.5,0.0,.
15min,AgWx,birchsprings,428,05AUG2017:05:45:00,50.7,46.8,87,0,2.7,1.3,271,0.00,0.00,0.04,64.5,0.0,.
15min,AgWx,birchsprings,428,05AUG2017:06:00:00,52.3,45.0,79,0,3.8,2.4,280,0.00,0.00,0.04,64.4,0.0,.
15min,AgWx,birchsprings,428,05AUG2017:06:15:00,52.9,42.3,68,2,3.0,2.0,266,0.00,0.00,0.04,64.2,0.0,.
15min,AgWx,birchsprings,428,05AUG2017:06:30:00,50.9,42.1,69,6,4.5,2.7,233,0.00,0.00,0.04,64.1,0.0,.
15min,AgWx,birchsprings,428,05AUG2017:06:45:00,52.1,42.0,71,27,3.5,1.9,237,0.00,0.00,0.04,63.9,0.0,.
15min,AgWx,birchsprings,428,05AUG2017:07:00:00,53.1,43.0,69,47,5.1,2.9,237,0.00,0.00,0.04,63.9,0.0,.
15min,AgWx,birchsprings,428,05AUG2017:07:15:00,54.6,43.9,69,52,5.2,3.3,233,0.00,0.00,0.04,63.8,0.0,.
15min,AgWx,birchsprings,428,05AUG2017:07:30:00,56.0,42.7,63,94,4.1,2.5,240,0.00,0.00,0.04,63.7,0.0,.
15min,AgWx,birchsprings,428,05AUG2017:07:45:00,56.4,43.8,64,119,5.4,3.3,276,0.00,0.00,0.04,63.5,0.0,.
15min,AgWx,birchsprings,428,05AUG2017:08:00:00,58.8,47.1,68,201,4.5,2.5,284,0.00,0.00,0.04,63.4,0.0,.
15min,AgWx,birchsprings,428,05AUG2017:08:15:00,58.6,46.0,63,103,4.0,1.9,295,0.00,0.00,0.04,63.3,0.0,.
15min,AgWx,birchsprings,428,05AUG2017:08:30:00,62.7,46.5,60,300,5.0,2.2,278,0.00,0.00,0.04,63.3,0.0,.
15min,AgWx,birchsprings,428,05AUG2017:08:45:00,65.4,46.0,52,377,3.3,1.3,293,0.00,0.00,0.04,63.2,0.0,.
15min,AgWx,birchsprings,428,05AUG2017:09:00:00,66.3,46.9,50,322,2.9,0.9,300,0.00,0.00,0.04,63.4,0.0,.
15min,AgWx,birchsprings,428,05AUG2017:09:15:00,68.9,46.5,48,381,3.2,1.1,349,0.00,0.00,0.04,63.4,0.0,.
15min,AgWx,birchsprings,428,05AUG2017:09:30:00,70.3,48.2,47,466,2.0,0.6,354,0.00,0.00,0.04,63.4,0.0,.
15min,AgWx,birchsprings,428,05AUG2017:09:45:00,72.8,49.4,46,541,3.5,1.6,62,0.00,0.00,0.04,63.4,0.0,.
15min,AgWx,birchsprings,428,05AUG2017:10:00:00,74.4,49.5,42,542,4.2,2.0,96,0.00,0.00,0.04,63.6,0.0,.
15min,AgWx,birchsprings,428,05AUG2017:10:15:00,74.1,50.3,43,568,4.7,3.0,66,0.00,0.00,0.04,63.6,0.0,.
15min,AgWx,birchsprings,428,05AUG2017:10:30:00,77.0,52.0,44,649,6.4,3.7,72,0.00,0.00,0.04,63.7,0.0,.
15min,AgWx,birchsprings,428,05AUG2017:10:45:00,78.0,51.2,39,631,7.1,3.8,76,0.00,0.00,0.04,63.8,0.0,.
15min,AgWx,birchsprings,428,05AUG2017:11:00:00,80.8,49.3,34,686,8.2,5.3,99,0.00,0.00,0.04,63.9,0.0,.
15min,AgWx,birchsprings,428,05AUG2017:11:15:00,83.1,50.4,35,760,8.7,4.9,94,0.00,0.00,0.04,64.2,0.0,.
15min,AgWx,birchsprings,428,05AUG2017:11:30:00,83.7,46.8,28,788,9.3,4.9,97,0.00,0.00,0.04,64.4,0.0,.
15min,AgWx,birchsprings,428,05AUG2017:11:45:00,83.6,47.5,29,826,7.7,4.7,94,0.00,0.00,0.04,64.6,0.0,.
15min,AgWx,birchsprings,428,05AUG2017:12:00:00,85.9,46.8,27,886,9.1,4.5,108,0.00,0.00,0.04,64.7,0.0,.
15min,AgWx,birchsprings,428,05AUG2017:12:15:00,84.4,43.9,23,847,6.9,3.1,142,0.00,0.00,0.04,65.1,0.0,.
15min,AgWx,birchsprings,428,05AUG2017:12:30:00,81.5,45.8,28,671,7.5,3.3,47,0.00,0.00,0.04,65.5,0.0,.
15min,AgWx,birchsprings,428,05AUG2017:12:45:00,79.9,41.3,25,434,14.5,5.6,313,0.00,0.00,0.04,66.0,0.0,.
15min,AgWx,birchsprings,428,05AUG2017:13:00:00,84.3,40.5,23,936,14.8,7.4,299,0.00,0.00,0.04,66.5,0.0,.
15min,AgWx,birchsprings,428,05AUG2017:13:15:00,84.1,39.1,20,948,15.3,8.2,283,0.00,0.00,0.04,66.9,0.0,.
15min,AgWx,birchsprings,428,05AUG2017:13:30:00,83.6,40.0,21,938,16.8,8.9,308,0.00,0.00,0.01,67.3,0.0,.
15min,AgWx,birchsprings,428,05AUG2017:13:45:00,83.8,38.1,20,937,18.3,9.3,298,0.00,0.00,0.00,67.8,0.0,.
15min,AgWx,birchsprings,428,05AUG2017:14:00:00,84.6,37.7,19,946,18.0,10.3,275,0.00,0.00,0.00,68.2,0.0,.
15min,AgWx,birchsprings,428,05AUG2017:14:15:00,84.5,39.2,20,941,15.4,9.7,281,0.00,0.00,0.00,68.7,0.0,.
15min,AgWx,birchsprings,428,05AUG2017:14:30:00,84.9,37.8,19,926,16.1,10.0,272,0.00,0.00,0.00,69.3,0.0,.
15min,AgWx,birchsprings,428,05AUG2017:14:45:00,85.0,38.2,19,919,18.9,10.1,280,0.00,0.00,0.00,69.8,0.0,.
15min,AgWx,birchsprings,428,05AUG2017:15:00:00,84.8,39.8,20,897,19.4,9.2,292,0.00,0.00,0.00,70.4,0.0,.
15min,AgWx,birchsprings,428,05AUG2017:15:15:00,86.1,39.9,20,874,15.3,9.1,293,0.00,0.00,0.00,70.8,0.0,.
15min,AgWx,birchsprings,428,05AUG2017:15:30:00,85.0,38.7,19,857,17.7,10.1,286,0.00,0.00,0.00,71.3,0.0,.
15min,AgWx,birchsprings,428,05AUG2017:15:45:00,85.4,39.7,20,835,16.1,8.7,285,0.00,0.00,0.00,71.8,0.0,.
15min,AgWx,birchsprings,428,05AUG2017:16:00:00,85.7,39.1,20,798,18.5,11.0,279,0.00,0.00,0.00,72.3,0.0,.
15min,AgWx,birchsprings,428,05AUG2017:16:15:00,84.9,38.1,19,755,18.2,10.9,284,0.00,0.00,0.00,72.8,0.0,.
15min,AgWx,birchsprings,428,05AUG2017:16:30:00,84.4,37.8,19,724,17.3,10.6,288,0.00,0.00,0.00,73.2,0.0,.
15min,AgWx,birchsprings,428,05AUG2017:16:45:00,84.5,38.8,20,672,16.6,9.5,287,0.00,0.00,0.00,73.6,0.0,.
15min,AgWx,birchsprings,428,05AUG2017:17:00:00,84.8,41.1,22,634,13.5,7.4,295,0.00,0.00,0.00,74.1,0.0,.
15min,AgWx,birchsprings,428,05AUG2017:17:15:00,83.8,39.4,20,594,13.8,8.8,289,0.00,0.00,0.00,74.5,0.0,.
15min,AgWx,birchsprings,428,05AUG2017:17:30:00,83.4,37.4,19,546,16.8,10.4,285,0.00,0.00,0.00,74.7,0.0,.
15min,AgWx,birchsprings,428,05AUG2017:17:45:00,83.4,38.1,20,497,19.7,9.5,282,0.00,0.00,0.00,75.1,0.0,.
15min,AgWx,birchsprings,428,05AUG2017:18:00:00,82.4,37.0,19,448,18.6,9.6,287,0.00,0.00,0.00,75.4,0.0,.
15min,AgWx,birchsprings,428,05AUG2017:18:15:00,81.7,37.5,20,398,16.2,8.9,291,0.00,0.00,0.00,75.6,0.0,.
15min,AgWx,birchsprings,428,05AUG2017:18:30:00,81.3,39.2,22,352,11.0,6.5,293,0.00,0.00,0.00,75.8,0.0,.
15min,AgWx,birchsprings,428,05AUG2017:18:45:00,80.7,37.1,21,296,12.1,7.4,283,0.00,0.00,0.00,75.7,0.0,.
15min,AgWx,birchsprings,428,05AUG2017:19:00:00,80.1,38.0,22,249,13.0,6.7,286,0.00,0.00,0.00,75.9,0.0,.
15min,AgWx,birchsprings,428,05AUG2017:19:15:00,78.9,36.3,21,201,15.1,9.1,274,0.00,0.00,0.00,75.9,0.0,.
15min,AgWx,birchsprings,428,05AUG2017:19:30:00,78.6,36.7,22,153,12.8,7.6,283,0.00,0.00,0.00,75.9,0.0,.
15min,AgWx,birchsprings,428,05AUG2017:19:45:00,76.7,36.3,22,105,11.5,6.4,281,0.00,0.00,0.00,75.9,0.0,.
15min,AgWx,birchsprings,428,05AUG2017:20:00:00,75.3,36.6,24,66,8.3,5.6,276,0.00,0.00,0.00,75.8,0.0,.
15min,AgWx,birchsprings,428,05AUG2017:20:15:00,74.0,36.0,24,30,7.1,5.5,270,0.00,0.00,0.00,75.7,0.0,.
15min,AgWx,birchsprings,428,05AUG2017:20:30:00,72.0,34.8,24,9,7.8,5.5,261,0.00,0.00,0.00,75.6,0.0,.
15min,AgWx,birchsprings,428,05AUG2017:20:45:00,65.3,37.4,31,2,7.1,4.8,241,0.00,0.00,0.00,75.4,0.0,.
15min,AgWx,birchsprings,428,05AUG2017:21:00:00,61.3,40.1,42,0,7.1,5.1,236,0.00,0.00,0.00,75.2,0.0,.
15min,AgWx,birchsprings,428,05AUG2017:21:15:00,59.2,41.0,49,0,5.5,4.3,236,0.00,0.00,0.00,75.0,0.0,.
15min,AgWx,birchsprings,428,05AUG2017:21:30:00,58.8,40.6,50,0,5.3,3.6,241,0.00,0.00,0.00,74.9,0.0,.
15min,AgWx,birchsprings,428,05AUG2017:21:45:00,61.8,38.7,45,0,5.7,2.1,261,0.00,0.00,0.00,74.6,0.0,.
15min,AgWx,birchsprings,428,05AUG2017:22:00:00,60.7,37.2,40,0,6.4,4.3,223,0.00,0.00,0.00,74.3,0.0,.
15min,AgWx,birchsprings,428,05AUG2017:22:15:00,57.3,39.7,49,0,4.8,2.5,236,0.00,0.00,0.00,74.0,0.0,.
15min,AgWx,birchsprings,428,05AUG2017:22:30:00,56.1,40.2,54,0,3.8,1.7,251,0.00,0.00,0.00,73.8,0.0,.
15min,AgWx,birchsprings,428,05AUG2017:22:45:00,56.7,39.6,54,0,4.1,2.0,231,0.00,0.00,0.00,73.5,0.0,.
15min,AgWx,birchsprings,428,05AUG2017:23:00:00,55.8,38.9,50,0,3.7,2.0,239,0.00,0.00,0.00,73.3,0.0,.
15min,AgWx,birchsprings,428,05AUG2017:23:15:00,56.3,38.4,51,0,3.8,2.0,254,0.00,0.00,0.00,72.9,0.0,.
15min,AgWx,birchsprings,428,05AUG2017:23:30:00,58.7,37.4,47,0,3.4,2.2,282,0.00,0.00,0.00,72.8,0.0,.
15min,AgWx,birchsprings,428,05AUG2017:23:45:00,58.9,37.4,44,0,4.0,2.7,271,0.00,0.00,0.00,72.4,0.0,.
15min,AgWx,birchsprings,428,06AUG2017:00:00:00,58.1,36.8,44,0,4.4,2.8,281,0.00,0.00,0.00,72.2,0.0,.
15min,AgWx,birchsprings,428,06AUG2017:00:15:00,57.5,36.8,45,0,4.6,3.4,277,0.00,0.00,0.00,71.9,0.0,.
15min,AgWx,birchsprings,428,06AUG2017:00:30:00,56.8,37.2,47,0,4.4,2.2,276,0.00,0.00,0.00,71.6,0.0,.
15min,AgWx,birchsprings,428,06AUG2017:00:45:00,56.6,36.7,47,0,5.9,2.0,104,0.00,0.00,0.00,71.4,0.0,.
15min,AgWx,blo,425,05AUG2017:00:00:00,70.7,29.5,21,0,12.7,10.4,247,0.00,0.00,0.00,77.6,77.7,9
15min,AgWx,blo,425,05AUG2017:00:15:00,71.4,31.0,23,0,10.4,8.7,243,0.00,0.00,0.00,77.4,77.6,9
15min,AgWx,blo,425,05AUG2017:00:30:00,69.6,31.3,23,0,11.8,9.1,247,0.00,0.00,0.00,77.5,77.6,9
15min,AgWx,blo,425,05AUG2017:00:45:00,68.9,31.3,24,0,10.9,8.9,242,0.00,0.00,0.00,77.4,77.5,9
15min,AgWx,blo,425,05AUG2017:01:00:00,69.6,31.3,25,0,11.4,9.5,241,0.00,0.00,0.00,77.3,77.3,9
15min,AgWx,blo,425,05AUG2017:01:15:00,70.7,31.4,23,0,11.1,8.9,249,0.00,0.00,0.00,77.1,77.3,9
15min,AgWx,blo,425,05AUG2017:01:30:00,70.0,32.1,25,0,11.5,9.7,237,0.00,0.00,0.00,77.1,77.1,9
15min,AgWx,blo,425,05AUG2017:01:45:00,71.8,32.0,23,0,12.1,10.2,230,0.00,0.00,0.00,76.9,77.1,9
15min,AgWx,blo,425,05AUG2017:02:00:00,70.5,29.6,21,0,11.5,9.4,241,0.00,0.00,0.00,76.9,77.0,9
15min,AgWx,blo,425,05AUG2017:02:15:00,70.0,29.2,22,0,11.7,9.6,243,0.00,0.00,0.00,76.9,76.9,9
15min,AgWx,blo,425,05AUG2017:02:30:00,69.1,28.9,22,0,12.7,10.9,244,0.00,0.00,0.00,76.7,76.8,9
15min,AgWx,blo,425,05AUG2017:02:45:00,69.6,29.4,23,0,14.5,11.8,243,0.00,0.00,0.00,76.6,76.7,9
15min,AgWx,blo,425,05AUG2017:03:00:00,67.4,31.8,25,0,12.0,9.6,240,0.00,0.00,0.00,76.5,76.6,9
15min,AgWx,blo,425,05AUG2017:03:15:00,68.2,33.5,28,0,9.7,7.7,237,0.00,0.00,0.00,76.5,76.5,9
15min,AgWx,blo,425,05AUG2017:03:30:00,66.9,34.6,30,0,9.5,8.3,243,0.00,0.00,0.00,76.3,76.4,9
15min,AgWx,blo,425,05AUG2017:03:45:00,70.0,39.3,35,0,12.7,9.5,226,0.00,0.00,0.00,76.3,76.3,9
15min,AgWx,blo,425,05AUG2017:04:00:00,69.7,40.7,35,0,14.0,10.3,214,0.00,0.00,0.00,76.1,76.3,9
15min,AgWx,blo,425,05AUG2017:04:15:00,65.1,40.6,37,0,10.9,6.8,206,0.00,0.00,0.00,76.2,76.1,9
15min,AgWx,blo,425,05AUG2017:04:30:00,64.4,40.7,42,0,6.6,5.3,213,0.00,0.00,0.00,75.9,76.0,9
15min,AgWx,blo,425,05AUG2017:04:45:00,62.3,41.0,44,0,6.1,5.0,214,0.00,0.00,0.00,75.9,75.9,9
15min,AgWx,blo,425,05AUG2017:05:00:00,62.9,41.2,46,0,5.1,3.8,215,0.00,0.00,0.00,75.8,75.9,9
15min,AgWx,blo,425,05AUG2017:05:15:00,63.3,41.1,44,0,4.6,3.7,215,0.00,0.00,0.00,75.8,75.7,9
15min,AgWx,blo,425,05AUG2017:05:30:00,62.9,41.0,44,0,5.9,4.7,219,0.00,0.00,0.00,75.7,75.7,9
15min,AgWx,blo,425,05AUG2017:05:45:00,62.5,41.0,45,0,6.0,4.7,213,0.00,0.00,0.00,75.5,75.6,9
15min,AgWx,blo,425,05AUG2017:06:00:00,63.0,40.8,45,0,6.1,4.8,208,0.00,0.00,0.00,75.5,75.5,9
15min,AgWx,blo,425,05AUG2017:06:15:00,63.9,40.7,43,1,6.1,4.6,217,0.00,0.00,0.00,75.3,75.4,9
15min,AgWx,blo,425,05AUG2017:06:30:00,61.1,40.8,44,6,7.0,5.1,214,0.00,0.00,0.00,75.3,75.3,9
15min,AgWx,blo,425,05AUG2017:06:45:00,62.2,41.2,48,24,8.4,5.7,217,0.00,0.00,0.00,75.1,75.2,9
15min,AgWx,blo,425,05AUG2017:07:00:00,65.6,41.6,45,51,6.1,4.0,224,0.00,0.00,0.00,75.0,75.1,9
15min,AgWx,blo,425,05AUG2017:07:15:00,67.9,42.7,41,88,6.9,4.5,246,0.00,0.00,0.00,75.0,75.0,9
15min,AgWx,blo,425,05AUG2017:07:30:00,68.6,43.5,41,132,7.0,4.6,251,0.00,0.00,0.00,74.8,74.9,9
15min,AgWx,blo,425,05AUG2017:07:45:00,70.3,43.5,39,183,9.0,4.9,243,0.00,0.00,0.00,74.7,74.8,9
15min,AgWx,blo,425,05AUG2017:08:00:00,70.6,44.2,39,189,9.2,4.6,204,0.00,0.00,0.00,74.6,74.7,9
15min,AgWx,blo,425,05AUG2017:08:15:00,71.4,44.7,39,269,12.1,6.5,213,0.00,0.00,0.00,74.5,74.5,9
15min,AgWx,blo,425,05AUG2017:08:30:00,72.4,44.3,37,319,11.1,6.3,218,0.00,0.00,0.00,74.4,74.5,9
15min,AgWx,blo,425,05AUG2017:08:45:00,73.1,43.8,35,371,10.4,5.3,219,0.00,0.00,0.00,74.2,74.4,9
15min,AgWx,blo,425,05AUG2017:09:00:00,74.5,43.8,34,419,10.1,4.7,193,0.00,0.00,0.00,74.1,74.3,9
15min,AgWx,blo,425,05AUG2017:09:15:00,73.9,43.8,34,469,14.7,8.5,197,0.00,0.00,0.00,74.1,74.3,9